K7OLI-13 Weather Reports


time (UTC)temp
C
wind
direction
speed
KPH
gust
KPH
rain 1hr
cm
rain 24hr
cm
rain mn
cm
humidity
%
barometer
mb
20260510102536 11 203 11.3 14.5 0.00 0.00 0.00 90 1013.2
20260510101524 12 207 14.5 17.7 0.00 0.00 0.00 90 1013.2
20260510100536 12 197 11.3 14.5 0.00 0.00 0.00 90 1013.2
20260510095523 12 210 11.3 14.5 0.00 0.00 0.00 90 1013.2
20260510094529 12 194 11.3 16.1 0.00 0.00 0.00 90 1013.2
20260510093557 12 196 9.7 16.1 0.00 0.00 0.00 90 1012.2
20260510092528 12 215 12.9 16.1 0.00 0.00 0.00 90 1012.2
20260510091544 12 221 16.1 24.1 0.00 0.00 0.00 90 1012.2
20260510090523 12 221 16.1 20.9 0.00 0.00 0.00 90 1013.2
20260510085525 12 201 16.1 24.1 0.00 0.00 0.00 89 1012.4
20260510084521 12 223 12.9 16.1 0.00 0.00 0.00 89 1012.2
20260510083528 12 213 9.7 16.1 0.00 0.00 0.00 89 1012.2
20260510082556 12 223 9.7 14.5 0.00 0.00 0.00 88 1012.2
20260510081528 13 216 11.3 14.5 0.00 0.00 0.00 88 1012.2
20260510080536 13 215 11.3 17.7 0.00 0.00 0.00 88 1012.2
20260510075528 13 210 12.9 16.1 0.00 0.00 0.00 88 1012.2
20260510074552 13 220 11.3 16.1 0.00 0.00 0.00 88 1012.2
20260510073601 13 217 12.9 19.3 0.00 0.00 0.00 87 1012.2
20260510072528 13 231 11.3 14.5 0.00 0.00 0.00 86 1012.2
20260510071536 13 225 12.9 16.1 0.00 0.00 0.00 85 1012.2
20260510070527 14 220 14.5 16.1 0.00 0.00 0.00 84 1012.2
20260510065528 14 226 14.5 19.3 0.00 0.00 0.00 82 1012.2
20260510064543 15 214 9.7 14.5 0.00 0.00 0.00 80 1012.2
20260510063530 15 222 9.7 12.9 0.00 0.00 0.00 78 1012.2
20260510062538 15 211 8.0 11.3 0.00 0.00 0.00 76 1012.2
20260510061548 16 210 6.4 8.0 0.00 0.00 0.00 76
20260510060538 16 223 6.4 9.7 0.00 0.00 0.00 75 1012.2
20260510055527 16 220 4.8 9.7 0.00 0.00 0.00 74 1012.2
20260510054533 16 216 4.8 6.4 0.00 0.00 0.00 74 1012.2
20260510053603 17 215 4.8 9.7 0.00 0.00 0.00 72 1012.2
20260510052530 17 197 6.4 11.3 0.00 0.00 0.00 72 1012.2
20260510051538 17 223 6.4 9.7 0.00 0.00 0.00 71 1012.2
20260510050539 17 213 9.7 11.3 0.00 0.00 0.00 70 1012.2
20260510045529 17 225 11.3 12.9 0.00 0.00 0.00 69 1011.5
20260510044519 18 238 14.5 20.9 0.00 0.00 0.00 68 1011.2
20260510043532 18 227 11.3 16.1 0.00 0.00 0.00 67 1011.2
20260510042522 18 228 12.9 19.3 0.00 0.00 0.00 67 1011.2
20260510041529 18 213 12.9 19.3 0.00 0.00 0.00 66 1011.2
20260510040540 18 223 14.5 17.7 0.00 0.00 0.00 66 1011.2
20260510035530 19 223 12.9 17.7 0.00 0.00 0.00 65 1011.2
20260510034520 20 217 14.5 19.3 0.00 0.00 0.00 63 1011.2
20260510033523 20 220 12.9 20.9 0.00 0.00 0.00 61 1011.2
20260510032532 21 221 12.9 16.1 0.00 0.00 0.00 58 1011.2
20260510031542 22 231 9.7 14.5 0.00 0.00 0.00 54 1011.2
20260510030529 23 232 3.2 4.8 0.00 0.00 0.00 45 1011.2
20260510025611 25 225 0.0 1.6 0.00 0.00 0.00 42 1011.2
20260510024525 25 220 1.6 3.2 0.00 0.00 0.00 41 1011.2
20260510023534 25 237 3.2 4.8 0.00 0.00 0.00 41 1011.2
20260510022524 25 297 0.0 3.2 0.00 0.00 0.00 42 1011.2
20260510021532 25 350 1.6 3.2 0.00 0.00 0.00 41 1011.2
20260510020541 25 0.0 0.0 0.00 0.00 0.00 41 1011.2
20260510015532 25 285 3.2 6.4 0.00 0.00 0.00 41 1011.2
20260510014543 25 337 4.8 6.4 0.00 0.00 0.00 41 1011.2
20260510013528 25 360 4.8 8.0 0.00 0.00 0.00 40 1011.2
20260510012536 25 5 3.2 4.8 0.00 0.00 0.00 39 1011.2
20260510011524 25 345 4.8 6.4 0.00 0.00 0.00 38 1011.2
20260510010531 25 322 3.2 6.4 0.00 0.00 0.00 37 1011.2
20260510005521 25 261 4.8 8.0 0.00 0.00 0.00 38 1011.2
20260510004543 26 260 3.2 8.0 0.00 0.00 0.00 36 1011.2
20260510003557 25 52 6.4 8.0 0.00 0.00 0.00 38 1012.2
20260510001041 26 11 6.4 9.7 0.00 0.00 0.00 35 1012.2
20260510000028 26 295 6.4 9.7 0.00 0.00 0.00 36 1012.2
20260509235029 25 40 6.4 8.0 0.00 0.00 0.00 36 1012.2
20260509234019 25 347 8.0 14.5 0.00 0.00 0.00 38 1012.2
20260509233032 26 275 6.4 9.7 0.00 0.00 0.00 40 1012.2
20260509232025 25 345 8.0 12.9 0.00 0.00 0.00 41 1012.2
20260509231032 25 39 11.3 12.9 0.00 0.00 0.00 42 1012.2
20260509230019 26 279 4.8 6.4 0.00 0.00 0.00 40 1012.2
20260509225029 25 29 6.4 11.3 0.00 0.00 0.00 42 1013.2
20260509224020 25 304 9.7 12.9 0.00 0.00 0.00 41 1013.2
20260509223024 26 298 8.0 12.9 0.00 0.00 0.00 43 1013.2
20260509222035 25 275 8.0 11.3 0.00 0.00 0.00 43 1013.2
20260509221021 25 280 8.0 12.9 0.00 0.00 0.00 45 1013.2
20260509220032 25 279 4.8 8.0 0.00 0.00 0.00 45 1013.2
20260509215019 25 257 9.7 14.5 0.00 0.00 0.00 45 1014.2
20260509214021 25 268 6.4 11.3 0.00 0.00 0.00 45 1014.2
20260509213035 25 258 4.8 11.3 0.00 0.00 0.00 45 1014.2
20260509212042 25 311 6.4 9.7 0.00 0.00 0.00 43 1014.2
20260509211032 25 268 6.4 9.7 0.00 0.00 0.00 45 1014.2
20260509210024 24 344 8.0 12.9 0.00 0.00 0.00 45 1014.2
20260509205031 23 324 8.0 12.9 0.00 0.00 0.00 46 1014.2
20260509204042 23 283 8.0 12.9 0.00 0.00 0.00 48 1014.2
20260509203027 23 256 6.4 12.9 0.00 0.00 0.00 47 1014.2
20260509202055 23 280 8.0 11.3 0.00 0.00 0.00 50 1015.2
20260509201044 23 242 12.9 16.1 0.00 0.00 0.00 51 1015.2
20260509200241 22 239 4.8 6.4 0.00 0.00 0.00 55
20260509195230 22 250 9.7 12.9 0.00 0.00 0.00 53 1015.2
20260509194043 22 237 9.7 14.5 0.00 0.00 0.00 54 1015.2
20260509193037 21 260 9.7 16.1 0.00 0.00 0.00 57 1015.2
20260509192026 21 269 6.4 12.9 0.00 0.00 0.00 58 1015.2
20260509191034 21 291 8.0 14.5 0.00 0.00 0.00 58 1016.0
20260509190104 21 297 8.0 14.5 0.00 0.00 0.00 59 1016.2
20260509185034 21 259 12.9 20.9 0.00 0.00 0.00 60 1016.2
20260509184021 21 248 11.3 14.5 0.00 0.00 0.00 59 1016.2
20260509183028 21 275 8.0 14.5 0.00 0.00 0.00 58 1016.2
20260509182056 21 293 8.0 14.5 0.00 0.00 0.00 59 1016.2
20260509181043 20 318 8.0 9.7 0.00 0.00 0.00 62 1016.2
20260509180708 20 23 6.4 8.0 0.00 0.00 0.00 61
20260509175023 20 331 9.7 14.5 0.00 0.00 0.00 63 1016.2
20260509174258 19 8.0 8.0 0.00 0.00 0.00 64 1016.2
20260509173621 19 30 8.0 12.9 0.00 0.00 0.00 65 1016.2
20260509172027 18 318 6.4 9.7 0.00 0.00 0.00 67 1016.2
20260509171034 17 360 9.7 12.9 0.00 0.00 0.00 70 1017.0
20260509170025 17 6 8.0 11.3 0.00 0.00 0.00 69 1017.2
20260509165032 17 2 6.4 11.3 0.00 0.00 0.00 71 1017.2
20260509164042 17 333 8.0 11.3 0.00 0.00 0.00 71 1017.2
20260509163029 16 335 6.4 9.7 0.00 0.00 0.00 74 1017.2
20260509162019 16 251 4.8 8.0 0.00 0.00 0.00 77 1017.2
20260509161026 15 294 6.4 11.3 0.00 0.00 0.00 78 1017.2
20260509160114 15 299 4.8 9.7 0.00 0.00 0.00 80 1017.2
20260509155025 14 323 8.0 12.9 0.00 0.00 0.00 81 1017.2
20260509154107 14 329 6.4 11.3 0.00 0.00 0.00 81 1017.9
20260509153022 14 320 6.4 9.7 0.00 0.00 0.00 82 1018.1
20260509152030 13 313 4.8 6.4 0.00 0.00 0.00 83 1018.1
20260509151037 13 12 6.4 8.0 0.00 0.00 0.00 84 1018.1
20260509150027 13 293 3.2 4.8 0.00 0.00 0.00 85 1018.2
20260509145055 12 333 3.2 6.4 0.00 0.00 0.00 86 1018.2
20260509144024 12 344 3.2 4.8 0.00 0.00 0.00 88 1018.1
20260509143032 12 18 3.2 6.4 0.00 0.00 0.00 89 1018.2
20260509142025 11 25 6.4 6.4 0.00 0.00 0.00 89 1018.1
20260509141029 11 334 3.2 4.8 0.00 0.00 0.00 92 1017.3
20260509140019 11 43 1.6 4.8 0.00 0.00 0.00 93 1017.1
20260509135027 9 0.0 0.0 0.00 0.00 0.00 99 1017.1
20260509134049 8 0.0 0.0 0.00 0.00 0.00 99 1017.1
20260509133019 8 0.0 0.0 0.00 0.00 0.00 99 1017.1
20260509132032 7 0.0 0.0 0.00 0.00 0.00 99 1017.1
20260509131024 7 0.0 0.0 0.00 0.00 0.00 99 1017.1
20260509130032 7 0.0 0.0 0.00 0.00 0.00 99 1017.1
20260509125019 7 0.0 0.0 0.00 0.00 0.00 99 1017.1
20260509124030 7 0.0 0.0 0.00 0.00 0.00 99 1017.1
20260509123020 7 0.0 0.0 0.00 0.00 0.00 99 1017.1
20260509122025 7 0.0 0.0 0.00 0.00 0.00 99 1017.1
20260509121033 7 0.0 0.0 0.00 0.00 0.00 99 1017.9
20260509120044 8 90 0.0 1.6 0.00 0.00 0.00 99 1018.1
20260509115035 8 0.0 0.0 0.00 0.00 0.00 99 1017.1
20260509114020 8 0.0 0.0 0.00 0.00 0.00 99 1017.1
20260509113021 8 0.0 0.0 0.00 0.00 0.00 99 1017.1
20260509112036 8 0.0 0.0 0.00 0.00 0.00 99 1017.1
20260509111025 8 0.0 0.0 0.00 0.00 0.00 99 1017.9
20260509110033 8 0.0 3.2 0.00 0.00 0.00 99 1018.1
20260509105023 8 230 1.6 3.2 0.00 0.00 0.00 99 1018.1
20260509104032 8 231 3.2 3.2 0.00 0.00 0.00 99 1018.1
20260509103022 8 248 0.0 1.6 0.00 0.00 0.00 99 1018.1